Retour au catalogue

STARLINK-2371

ActifCommunicationsVLEO
NORAD 47911·PAYLOAD·🇺🇸 United States

Lancé Mar 14, 2021 depuis Cape Canaveral Space Force Station

Loading…

Prochains Passages (prochaines 24 heures)

TLE

FraisSource: CelesTrak SupGP

Époque: Sep 15, 2026, 02:46 UTC

1 47911C 21021BD  26258.11576389  .00069338  00000+0  21847-2 0  2581
2 47911  53.1569 119.4146 0000738  90.7561  31.0290 15.32318875    14

Suivez STARLINK-2371 en temps réel avec AllMySat

Download on the App Store